M I D A S
Marine Information and Data Acquisition System
Tripno 862 of the Zeeleeuw from 2005-03-14 08:39:53 to 2005-03-14 13:46:52
Back to CruiseResearch ActivitiesStationsMapUnderway DataData graphs

EquipmentUnitsComments
TimeDGPSUTC
LatitudeDGPSDM.mWGS84
LongitudeDGPSDM.mWGS84
SpeedMeteo Stationm/sRelative wind speed
DirectionMeteo StationdegRelative wind direction
TemperatureMeteo Stationdeg CelciusAir temperature
PressureMeteo StationPaAtmospheric pressure
HumidityMeteo Station%Relative humidity
Missing or incorrect values are displayed as -999
Metereological data collected by the RV Zeeleeuw from 2005-03-14 08:40:48 to 2005-03-14 13:56:38
Time Latitude Longitude Speed Direction Temperature Pressure Humidity
2005-03-14 08:41 51°13.639 2°55.976 0.8 123 4.2 101310 85
2005-03-14 08:42 51°13.653 2°55.94 3 159 4.2 101300 85
2005-03-14 08:43 51°13.694 2°55.845 4.3 151 4.2 101310 85
2005-03-14 08:44 51°13.725 2°55.74 2.8 127 4.2 101310 85
2005-03-14 08:45 51°13.73 2°55.727 2.1 164 4.2 101310 85
2005-03-14 08:46 51°13.748 2°55.711 1.7 308 4.4 101310 85
2005-03-14 08:47 51°13.834 2°55.636 1.8 344 4.4 101300 85
2005-03-14 08:48 51°13.954 2°55.545 2.8 334 4.5 101310 84
2005-03-14 08:49 51°14.089 2°55.443 4.3 343 4.5 101300 84
2005-03-14 08:50 51°14.233 2°55.302 6.3 341 4.4 101300 84
2005-03-14 08:51 51°14.358 2°55.082 7.4 323 4.5 101300 84
2005-03-14 08:52 51°14.514 2°54.876 6.6 228 4.5 101290 83
2005-03-14 08:53 51°14.677 2°54.767 3.3 267 4.5 101300 83
2005-03-14 08:54 51°14.757 2°54.734 2.4 253 4.5 101300 83
2005-03-14 08:55 51°14.801 2°54.685 4.8 249 4.4 101310 83
2005-03-14 08:56 51°14.83 2°54.637 3.9 252 4.4 101310 83
2005-03-14 08:57 51°14.852 2°54.592 3.7 252 4.3 101310 83
2005-03-14 08:58 51°14.939 2°54.522 4.7 291 4.3 101300 84
2005-03-14 08:59 51°15.108 2°54.404 5.9 311 4.3 101300 84
2005-03-14 09:00 51°15.289 2°54.254 5 316 4.3 101300 84
2005-03-14 09:01 51°15.479 2°54.099 5.4 227 4.3 101300 84
2005-03-14 09:02 51°15.679 2°53.95 5.9 42 4.3 101300 85
2005-03-14 09:03 51°15.876 2°53.786 5.2 319 4.2 101300 85
2005-03-14 09:04 51°16.068 2°53.602 6.1 317 4.2 101300 85
2005-03-14 09:05 51°16.258 2°53.421 5.8 42 4.2 101300 86
2005-03-14 09:06 51°16.448 2°53.24 5.5 317 4.2 101290 86
2005-03-14 09:07 51°16.637 2°53.057 5.7 227 4.2 101300 86
2005-03-14 09:08 51°16.828 2°52.892 5.2 315 4.2 101300 87
2005-03-14 09:09 51°17.014 2°52.742 3.8 318 4.2 101300 87
2005-03-14 09:10 51°17.216 2°52.643 3.3 328 4.2 101300 87
2005-03-14 09:11 51°17.42 2°52.582 3.6 333 4.2 101310 88
2005-03-14 09:12 51°17.628 2°52.512 3.6 329 4.2 101310 88
2005-03-14 09:13 51°17.836 2°52.439 4.3 328 4.2 101300 88
2005-03-14 09:14 51°18.042 2°52.41 2.7 343 4.2 101300 88
2005-03-14 09:15 51°18.249 2°52.465 2.6 353 4.2 101300 88
2005-03-14 09:16 51°18.427 2°52.611 3.4 35 4.2 101300 89
2005-03-14 09:17 51°18.582 2°52.816 3.4 51 4.2 101300 89
2005-03-14 09:18 51°18.728 2°53.046 3.7 48 4.2 101290 89
2005-03-14 09:19 51°18.824 2°53.328 5.4 50 4.1 101290 89
2005-03-14 09:20 51°18.911 2°53.613 5.3 57 4.1 101300 90
2005-03-14 09:21 51°19.003 2°53.889 4.5 47 4 101290 90
2005-03-14 09:22 51°19.099 2°54.168 4.6 54 4 101300 90
2005-03-14 09:23 51°19.197 2°54.443 4.6 55 3.9 101290 91
2005-03-14 09:24 51°19.298 2°54.721 4.5 53 3.9 101300 91
2005-03-14 09:25 51°19.402 2°55.003 4.3 54 3.9 101300 91
2005-03-14 09:26 51°19.501 2°55.276 4.2 54 3.9 101290 91
2005-03-14 09:27 51°19.6 2°55.547 4 52 3.9 101290 91
2005-03-14 09:28 51°19.7 2°55.817 4.1 57 3.9 101290 92
2005-03-14 09:29 51°19.797 2°56.082 4.5 56 3.9 101290 92
2005-03-14 09:30 51°19.94 2°56.282 2.4 48 3.9 101290 92
2005-03-14 09:31 51°20.102 2°56.45 2.1 49 3.9 101290 92
2005-03-14 09:32 51°20.264 2°56.626 2.6 40 3.9 101290 92
2005-03-14 09:33 51°20.42 2°56.806 3.2 45 3.9 101290 92
2005-03-14 09:34 51°20.575 2°56.995 2.8 53 3.9 101280 92
2005-03-14 09:35 51°20.728 2°57.178 2.2 58 3.9 101290 92
2005-03-14 09:36 51°20.885 2°57.364 2.7 60 3.9 101290 92
2005-03-14 09:37 51°21.034 2°57.554 3.1 60 4 101290 92
2005-03-14 09:38 51°21.185 2°57.752 3.5 61 4 101290 92
2005-03-14 09:39 51°21.334 2°57.953 2.3 67 4 101290 92
2005-03-14 09:40 51°21.483 2°58.161 3.6 65 4 101280 92
2005-03-14 09:41 51°21.626 2°58.388 3.4 64 4 101290 92
2005-03-14 09:42 51°21.771 2°58.608 2.9 65 4 101290 92
2005-03-14 09:43 51°21.914 2°58.835 3.2 57 4 101290 92
2005-03-14 09:44 51°22.057 2°59.058 3.5 69 4 101280 92
2005-03-14 09:45 51°22.199 2°59.28 2.9 76 4 101280 92
2005-03-14 09:46 51°22.34 2°59.505 3.3 61 4 101290 92
2005-03-14 09:47 51°22.481 2°59.724 3 60 4 101290 92
2005-03-14 09:48 51°22.62 2°59.942 3.2 63 4.1 101300 92
2005-03-14 09:49 51°22.761 3°0.166 3 72 4.1 101300 91
2005-03-14 09:50 51°22.903 3°0.389 3.3 54 4.1 101300 91
2005-03-14 09:51 51°23.046 3°0.613 3 51 4.1 101300 91
2005-03-14 09:52 51°23.191 3°0.833 2.9 49 4.1 101290 91
2005-03-14 09:53 51°23.335 3°1.053 2.8 63 4.1 101290 91
2005-03-14 09:54 51°23.48 3°1.268 2.7 52 4.1 101290 91
2005-03-14 09:55 51°23.623 3°1.481 3.1 59 4.2 101290 91
2005-03-14 09:56 51°23.767 3°1.688 3.1 58 4.2 101290 91
2005-03-14 09:57 51°23.914 3°1.898 2.7 48 4.2 101290 91
2005-03-14 09:58 51°24.059 3°2.101 3.5 61 4.2 101290 91
2005-03-14 09:59 51°24.207 3°2.32 3.4 54 4.2 101290 91
2005-03-14 10:00 51°24.352 3°2.535 3.1 63 4.2 101290 91
2005-03-14 10:01 51°24.506 3°2.758 3 51 4.2 101290 91
2005-03-14 10:02 51°24.654 3°2.982 3.4 58 4.2 101290 90
2005-03-14 10:03 51°24.799 3°3.211 2.6 60 4.2 101290 90
2005-03-14 10:04 51°24.929 3°3.449 3 62 4.3 101300 90
2005-03-14 10:05 51°25.056 3°3.699 3.8 68 4.3 101290 90
2005-03-14 10:06 51°25.18 3°3.955 4.2 59 4.3 101300 90
2005-03-14 10:07 51°25.298 3°4.203 4.4 49 4.3 101290 91
2005-03-14 10:08 51°25.418 3°4.454 3.6 61 4.3 101300 90
2005-03-14 10:09 51°25.536 3°4.706 3.9 56 4.3 101300 90
2005-03-14 10:10 51°25.661 3°4.946 3.1 81 4.3 101290 90
2005-03-14 10:11 51°25.796 3°5.177 3.1 61 4.3 101300 90
2005-03-14 10:12 51°25.927 3°5.403 3.7 87 4.3 101300 90
2005-03-14 10:13 51°26.062 3°5.633 2.8 73 4.3 101290 90
2005-03-14 10:14 51°26.192 3°5.86 3.1 65 4.3 101300 90
2005-03-14 10:15 51°26.328 3°6.089 2.4 67 4.3 101300 90
2005-03-14 10:16 51°26.46 3°6.314 2.2 63 4.3 101300 90
2005-03-14 10:17 51°26.591 3°6.544 3 67 4.3 101300 90
2005-03-14 10:18 51°26.724 3°6.776 2.8 62 4.3 101300 90
2005-03-14 10:19 51°26.859 3°7.006 3.3 56 4.3 101300 90
2005-03-14 10:20 51°26.993 3°7.237 3 50 4.3 101300 89
2005-03-14 10:21 51°27.13 3°7.475 2.9 57 4.4 101310 89
2005-03-14 10:22 51°27.265 3°7.703 3.5 47 4.4 101300 89
2005-03-14 10:23 51°27.4 3°7.932 3.2 57 4.4 101300 89
2005-03-14 10:24 51°27.538 3°8.167 2.9 47 4.4 101300 89
2005-03-14 10:25 51°27.673 3°8.4 3.3 58 4.4 101300 89
2005-03-14 10:26 51°27.811 3°8.635 3.1 46 4.4 101310 89
2005-03-14 10:27 51°27.948 3°8.872 3.3 51 4.4 101300 90
2005-03-14 10:28 51°28.07 3°9.057 0.4 104 4.4 101300 90
2005-03-14 10:29 51°28.139 3°9.076 2.7 202 4.5 101310 90
2005-03-14 10:30 51°28.142 3°9.076 4.9 173 4.5 101310 90
2005-03-14 10:31 51°28.135 3°9.08 4.4 154 4.5 101310 89
2005-03-14 10:32 51°28.126 3°9.084 4.4 138 4.5 101310 89
2005-03-14 10:33 51°28.114 3°9.089 4.4 139 4.5 101300 89
2005-03-14 10:34 51°28.101 3°9.092 4 132 4.5 101310 89
2005-03-14 10:35 51°28.085 3°9.093 5.6 132 4.5 101310 89
2005-03-14 10:36 51°28.069 3°9.091 5.5 129 4.5 101300 89
2005-03-14 10:37 51°28.053 3°9.089 6 121 4.5 101300 89
2005-03-14 10:38 51°28.036 3°9.085 5.7 128 4.5 101300 88
2005-03-14 10:39 51°28.019 3°9.081 6.5 115 4.5 101300 88
2005-03-14 10:40 51°28.001 3°9.075 5.6 113 4.6 101310 88
2005-03-14 10:41 51°27.983 3°9.069 6.1 109 4.6 101300 88
2005-03-14 10:42 51°27.965 3°9.062 6.3 101 4.6 101300 88
2005-03-14 10:43 51°27.944 3°9.06 5.9 93 4.6 101300 88
2005-03-14 10:44 51°27.877 3°9.166 9.2 49 4.5 101290 87
2005-03-14 10:45 51°27.703 3°9.119 12 357 4.6 101290 88
2005-03-14 10:46 51°27.629 3°8.837 11 327 4.6 101270 87
2005-03-14 10:47 51°27.691 3°8.561 7.7 306 4.6 101290 87
2005-03-14 10:48 51°27.816 3°8.352 7 304 4.6 101290 87
2005-03-14 10:49 51°27.915 3°8.292 3.3 213 4.6 101310 87
2005-03-14 10:50 51°27.962 3°8.338 2.8 171 4.6 101310 87
2005-03-14 10:51 51°28.001 3°8.394 2.9 173 4.6 101310 87
2005-03-14 10:52 51°28.038 3°8.448 4.6 157 4.6 101310 87
2005-03-14 10:53 51°28.071 3°8.516 3.4 144 4.6 101300 87
2005-03-14 10:54 51°28.099 3°8.587 4.9 150 4.5 101310 87
2005-03-14 10:55 51°28.126 3°8.651 5.4 149 4.5 101310 87
2005-03-14 10:56 51°28.151 3°8.711 4.4 151 4.5 101310 87
2005-03-14 10:57 51°28.177 3°8.768 4.6 171 4.5 101310 87
2005-03-14 10:58 51°28.203 3°8.825 4.4 161 4.5 101310 87
2005-03-14 10:59 51°28.23 3°8.882 4.5 168 4.5 101310 87
2005-03-14 11:00 51°28.257 3°8.938 4.4 160 4.5 101310 87
2005-03-14 11:01 51°28.282 3°8.993 4 176 4.5 101310 87
2005-03-14 11:02 51°28.309 3°9.049 4 163 4.5 101310 87
2005-03-14 11:03 51°28.336 3°9.105 3.7 158 4.5 101310 87
2005-03-14 11:04 51°28.362 3°9.163 3.3 161 4.6 101310 87
2005-03-14 11:05 51°28.389 3°9.22 4.3 163 4.6 101310 87
2005-03-14 11:06 51°28.416 3°9.277 4.2 161 4.6 101310 87
2005-03-14 11:07 51°28.442 3°9.334 3.9 161 4.6 101310 87
2005-03-14 11:08 51°28.467 3°9.391 4.6 156 4.6 101310 87
2005-03-14 11:09 51°28.493 3°9.45 4.4 162 4.6 101310 87
2005-03-14 11:10 51°28.519 3°9.508 4.1 162 4.6 101300 87
2005-03-14 11:11 51°28.545 3°9.569 3.5 168 4.6 101300 86
2005-03-14 11:12 51°28.571 3°9.629 3.8 159 4.6 101310 86
2005-03-14 11:13 51°28.596 3°9.688 3.7 157 4.6 101310 86
2005-03-14 11:14 51°28.62 3°9.747 4 163 4.7 101310 86
2005-03-14 11:15 51°28.647 3°9.804 4.8 166 4.6 101310 86
2005-03-14 11:16 51°28.673 3°9.864 4.3 170 4.7 101310 86
2005-03-14 11:17 51°28.699 3°9.922 3.5 170 4.7 101310 86
2005-03-14 11:18 51°28.724 3°9.981 4.1 159 4.7 101310 85
2005-03-14 11:19 51°28.749 3°10.039 4.3 158 4.7 101310 85
2005-03-14 11:20 51°28.774 3°10.1 4 162 4.7 101310 85
2005-03-14 11:21 51°28.792 3°10.169 5.2 142 4.7 101310 85
2005-03-14 11:22 51°28.788 3°10.252 5.3 121 4.7 101310 85
2005-03-14 11:23 51°28.766 3°10.338 5.5 106 4.7 101310 85
2005-03-14 11:24 51°28.729 3°10.419 6.4 98 4.7 101320 85
2005-03-14 11:25 51°28.688 3°10.473 6.9 90 4.7 101310 85
2005-03-14 11:26 51°28.644 3°10.506 6.9 83 4.7 101300 85
2005-03-14 11:27 51°28.581 3°10.521 8.2 23 4.7 101310 85
2005-03-14 11:28 51°28.516 3°10.443 8.4 334 4.7 101310 85
2005-03-14 11:29 51°28.489 3°10.327 7.8 318 4.7 101310 85
2005-03-14 11:30 51°28.474 3°10.212 7.1 315 4.7 101300 85
2005-03-14 11:31 51°28.461 3°10.099 7.4 317 4.7 101310 85
2005-03-14 11:32 51°28.444 3°9.988 7.8 325 4.7 101310 85
2005-03-14 11:33 51°28.423 3°9.878 7.4 322 4.7 101310 85
2005-03-14 11:34 51°28.406 3°9.768 7.1 317 4.7 101310 85
2005-03-14 11:35 51°28.396 3°9.665 7.4 309 4.7 101310 85
2005-03-14 11:36 51°28.384 3°9.574 7 306 4.7 101310 85
2005-03-14 11:37 51°28.372 3°9.494 6.6 307 4.8 101310 85
2005-03-14 11:38 51°28.36 3°9.418 6.8 307 4.7 101320 85
2005-03-14 11:39 51°28.348 3°9.348 7.3 299 4.8 101310 85
2005-03-14 11:40 51°28.337 3°9.282 7.1 294 4.7 101300 85
2005-03-14 11:41 51°28.33 3°9.219 7.4 291 4.7 101310 85
2005-03-14 11:42 51°28.324 3°9.154 7.7 293 4.7 101300 86
2005-03-14 11:43 51°28.318 3°9.088 7.2 292 4.7 101320 86
2005-03-14 11:44 51°28.314 3°9.019 7.7 291 4.7 101330 86
2005-03-14 11:45 51°28.308 3°8.948 6.4 299 4.7 101330 86
2005-03-14 11:46 51°28.3 3°8.876 7.5 301 4.7 101330 86
2005-03-14 11:47 51°28.293 3°8.806 7.2 295 4.7 101330 87
2005-03-14 11:48 51°28.291 3°8.739 7.7 285 4.7 101330 87
2005-03-14 11:49 51°28.295 3°8.673 6.1 287 4.7 101320 87
2005-03-14 11:50 51°28.301 3°8.609 7.3 285 4.7 101330 87
2005-03-14 11:51 51°28.308 3°8.545 7.2 283 4.7 101320 87
2005-03-14 11:52 51°28.316 3°8.482 7 288 4.7 101330 87
2005-03-14 11:53 51°28.323 3°8.419 6.6 282 4.7 101320 88
2005-03-14 11:54 51°28.328 3°8.354 6.8 286 4.7 101330 88
2005-03-14 11:55 51°28.334 3°8.286 6.7 287 4.7 101330 88
2005-03-14 11:56 51°28.337 3°8.217 6.7 284 4.7 101320 88
2005-03-14 11:57 51°28.341 3°8.149 7.2 286 4.7 101330 88
2005-03-14 11:58 51°28.346 3°8.079 6.9 289 4.6 101320 88
2005-03-14 11:59 51°28.351 3°8.011 7.8 291 4.6 101320 89
2005-03-14 12:00 51°28.353 3°7.939 7.1 291 4.6 101320 89
2005-03-14 12:01 51°28.352 3°7.868 7.1 297 4.7 101320 89
2005-03-14 12:02 51°28.351 3°7.794 6.6 296 4.6 101330 89
2005-03-14 12:03 51°28.349 3°7.721 6.5 295 4.6 101330 89
2005-03-14 12:04 51°28.347 3°7.645 5.9 301 4.6 101310 89
2005-03-14 12:05 51°28.346 3°7.57 7.1 291 4.6 101320 90
2005-03-14 12:06 51°28.347 3°7.496 6 295 4.6 101320 90
2005-03-14 12:07 51°28.352 3°7.412 7 301 4.6 101300 90
2005-03-14 12:08 51°28.353 3°7.316 7.5 310 4.6 101310 90
2005-03-14 12:09 51°28.347 3°7.209 7.6 306 4.6 101310 90
2005-03-14 12:10 51°28.346 3°7.107 7.9 301 4.6 101300 90
2005-03-14 12:11 51°28.342 3°7.026 7 299 4.6 101310 91
2005-03-14 12:12 51°28.335 3°6.963 6.8 296 4.6 101310 91
2005-03-14 12:13 51°28.325 3°6.912 6.5 294 4.6 101320 91
2005-03-14 12:14 51°28.315 3°6.865 7.6 305 4.6 101330 91
2005-03-14 12:15 51°28.318 3°6.747 8 315 4.6 101320 91
2005-03-14 12:16 51°28.263 3°6.531 11.4 349 4.6 101310 91
2005-03-14 12:17 51°28.119 3°6.309 11.4 -999 4.6 101320 91
2005-03-14 12:18 51°27.94 3°6.079 12.7 1 4.6 101310 91
2005-03-14 12:19 51°27.748 3°5.826 14.1 1 4.6 101320 91
2005-03-14 12:20 51°27.554 3°5.572 14.2 6 4.6 101310 91
2005-03-14 12:21 51°27.361 3°5.31 14.2 3 4.6 101320 91
2005-03-14 12:22 51°27.174 3°5.048 14.6 3 4.6 101320 90
2005-03-14 12:23 51°26.989 3°4.79 13.8 2 4.6 101310 90
2005-03-14 12:24 51°26.801 3°4.533 14.5 359 4.6 101320 90
2005-03-14 12:25 51°26.616 3°4.276 13 359 4.6 101320 90
2005-03-14 12:26 51°26.431 3°4.024 13.6 1 4.6 101320 89
2005-03-14 12:27 51°26.246 3°3.771 13.5 1 4.6 101320 89
2005-03-14 12:28 51°26.063 3°3.517 13.7 4 4.6 101310 88
2005-03-14 12:29 51°25.878 3°3.264 14 359 4.6 101320 88
2005-03-14 12:30 51°25.695 3°3.009 12.7 357 4.7 101320 87
2005-03-14 12:31 51°25.512 3°2.758 13.7 1 4.7 101320 87
2005-03-14 12:32 51°25.329 3°2.507 12.9 2 4.7 101320 87
2005-03-14 12:33 51°25.149 3°2.257 12.5 359 4.7 101310 86
2005-03-14 12:34 51°24.965 3°2.003 12.9 2 4.7 101310 86
2005-03-14 12:35 51°24.791 3°1.762 13.2 2 4.7 101320 86
2005-03-14 12:36 51°24.616 3°1.518 13.4 2 4.7 101310 85
2005-03-14 12:37 51°24.443 3°1.277 11.9 -999 4.7 101310 85
2005-03-14 12:38 51°24.266 3°1.034 13.8 4 4.7 101310 85
2005-03-14 12:39 51°24.088 3°0.792 13 5 4.8 101310 85
2005-03-14 12:40 51°23.918 3°0.554 13 4 4.8 101310 84
2005-03-14 12:41 51°23.743 3°0.309 13.6 2 4.8 101320 84
2005-03-14 12:42 51°23.569 3°0.066 13.3 2 4.9 101310 84
2005-03-14 12:43 51°23.394 2°59.82 13.8 4 4.9 101310 84
2005-03-14 12:44 51°23.222 2°59.582 14.4 4 4.9 101310 84
2005-03-14 12:45 51°23.049 2°59.342 13 4 4.9 101310 84
2005-03-14 12:46 51°22.875 2°59.095 13.1 3 5 101300 83
2005-03-14 12:47 51°22.704 2°58.857 13.4 6 5 101310 83
2005-03-14 12:48 51°22.529 2°58.608 14 5 4.9 101300 84
2005-03-14 12:49 51°22.354 2°58.362 13.6 6 4.9 101290 84
2005-03-14 12:50 51°22.176 2°58.11 13.7 7 4.9 101300 84
2005-03-14 12:51 51°22.002 2°57.868 13.9 8 4.9 101300 85
2005-03-14 12:52 51°21.824 2°57.611 12.5 6 4.9 101300 85
2005-03-14 12:53 51°21.649 2°57.36 13 8 4.9 101290 85
2005-03-14 12:54 51°21.468 2°57.104 12.7 7 4.9 101300 86
2005-03-14 12:55 51°21.292 2°56.852 12.3 8 4.9 101300 86
2005-03-14 12:56 51°21.117 2°56.604 12.6 9 4.9 101300 86
2005-03-14 12:57 51°20.941 2°56.353 13 10 4.9 101300 87
2005-03-14 12:58 51°20.765 2°56.106 13.6 12 4.9 101290 87
2005-03-14 12:59 51°20.587 2°55.854 14.6 12 4.9 101300 87
2005-03-14 13:00 51°20.409 2°55.601 13.6 16 4.9 101300 87
2005-03-14 13:01 51°20.231 2°55.356 13.6 10 4.9 101270 88
2005-03-14 13:02 51°20.05 2°55.102 13.6 12 4.9 101270 88
2005-03-14 13:03 51°19.874 2°54.86 13.4 11 4.9 101270 88
2005-03-14 13:04 51°19.699 2°54.621 13.3 13 4.9 101270 88
2005-03-14 13:05 51°19.526 2°54.384 13.8 13 4.9 101270 89
2005-03-14 13:06 51°19.35 2°54.143 14.1 14 4.9 101270 89
2005-03-14 13:07 51°19.177 2°53.907 13.1 15 4.9 101270 89
2005-03-14 13:08 51°19.003 2°53.671 12.9 13 4.9 101280 89
2005-03-14 13:09 51°18.833 2°53.441 13.7 12 5 101270 90
2005-03-14 13:10 51°18.661 2°53.203 12.6 16 4.9 101270 90
2005-03-14 13:11 51°18.491 2°52.972 13.6 17 4.9 101270 90
2005-03-14 13:12 51°18.321 2°52.735 12.7 13 5 101260 90
2005-03-14 13:13 51°18.144 2°52.531 12.7 28 5 101270 90
2005-03-14 13:14 51°17.924 2°52.468 11.9 30 5 101270 91
2005-03-14 13:15 51°17.7 2°52.462 12.1 39 4.9 101270 91
2005-03-14 13:16 51°17.475 2°52.466 11.3 34 4.9 101270 91
2005-03-14 13:17 51°17.247 2°52.469 11.2 34 4.8 101270 91
2005-03-14 13:18 51°17.024 2°52.471 11.7 34 4.8 101270 92
2005-03-14 13:19 51°16.802 2°52.477 11.5 37 4.8 101280 92
2005-03-14 13:20 51°16.575 2°52.53 11 43 4.8 101280 92
2005-03-14 13:21 51°16.36 2°52.63 11.5 43 4.7 101270 92
2005-03-14 13:22 51°16.138 2°52.743 11.5 47 4.7 101280 92
2005-03-14 13:23 51°15.932 2°52.86 11 49 4.7 101280 92
2005-03-14 13:24 51°15.714 2°52.982 11.4 52 4.7 101280 91
2005-03-14 13:25 51°15.506 2°53.109 10 56 4.8 101280 91
2005-03-14 13:26 51°15.305 2°53.253 10.4 62 4.8 101280 90
2005-03-14 13:27 51°15.104 2°53.398 10 61 4.8 101270 89
2005-03-14 13:28 51°14.901 2°53.552 9.8 60 4.8 101270 88
2005-03-14 13:29 51°14.709 2°53.703 7.4 69 4.9 101270 87
2005-03-14 13:30 51°14.572 2°53.832 7.6 84 4.9 101290 87
2005-03-14 13:31 51°14.505 2°53.959 4.5 130 4.9 101290 86
2005-03-14 13:32 51°14.495 2°54.045 6.2 121 5 101290 86
2005-03-14 13:33 51°14.476 2°54.123 6.7 92 5 101290 86
2005-03-14 13:34 51°14.447 2°54.145 8.3 38 5 101290 85
2005-03-14 13:35 51°14.446 2°54.123 8.7 357 5 101290 85
2005-03-14 13:36 51°14.504 2°54.108 7.6 285 5 101280 85
2005-03-14 13:37 51°14.571 2°54.216 4.7 200 5.1 101300 84
2005-03-14 13:38 51°14.591 2°54.287 6.7 155 5.1 101290 84
2005-03-14 13:39 51°14.606 2°54.346 6.7 136 5.1 101290 84
2005-03-14 13:40 51°14.619 2°54.406 6.9 125 5 101280 83
2005-03-14 13:41 51°14.631 2°54.467 6.1 130 5 101290 83
2005-03-14 13:42 51°14.643 2°54.526 6.2 122 5 101280 83
2005-03-14 13:43 51°14.648 2°54.591 6.1 102 5 101290 83
2005-03-14 13:44 51°14.552 2°54.728 6.6 80 5 101280 83
2005-03-14 13:45 51°14.412 2°54.939 6.6 79 4.9 101280 82
2005-03-14 13:46 51°14.292 2°55.167 6.1 98 4.9 101280 82
2005-03-14 13:47 51°14.186 2°55.349 6.5 81 4.9 101290 81
2005-03-14 13:48 51°14.065 2°55.457 4.2 58 5 101280 79
2005-03-14 13:49 51°13.951 2°55.546 6.8 68 5.1 101280 72
2005-03-14 13:50 51°13.847 2°55.631 1.5 48 5.4 101290 70
2005-03-14 13:51 51°13.764 2°55.717 2.7 95 5.6 101290 70
2005-03-14 13:52 51°13.703 2°55.822 7.2 111 5.7 101290 68
2005-03-14 13:53 51°13.654 2°55.932 3.4 152 5.9 101290 57
2005-03-14 13:54 51°13.615 2°56.034 4.4 161 6 101290 52
2005-03-14 13:55 51°13.598 2°56.091 5.6 176 6.2 101290 51